Location: Boulin
(43.2500°N, 0.1333°E)
Time: 00:20:17
(UTC+00:00)

Cosmos 1933 - Pass Details

Date: 22 March 2026
Orbit: 507 x 515 km, 82.5° (Epoch: 14 April)

Event Time Altitude Azimuth Distance (km) Brightness Sun altitude
Exits shadow 04:32:44 21° 203° (SSW) 1,196 4.7 -16.4°
Maximum altitude 04:35:09 63° 280° (W) 577 3.1 -16.0°
Drops below altitude 10° 04:38:57 10° 2° (N) 1,745 6.1 -15.3°
Sets 04:41:06 0° 6° (N) 2,635 7.1 -14.9°
